www.pogodaiklimat.ru

Погода и климат >> Архив погоды >> Россия >> Курганская область >> Звериноголовское


ПОГОДА в Звериноголовском

  • Прогноз погоды в Звериноголовском
  • Монитор погоды в Звериноголовском

АРХИВ ПОГОДЫ в Звериноголовском

Время (UTC), дата Ветер
(напр.,м/с)
 
Видим.   Явления Облачность Т
(С)
Тd
(С)
f
(%)
Тe
(С)
Тes
(С)
Комфортность P
(гПа)
Po
(гПа)
Тmin
(С)
Tmax
(С)
R
(мм)
R24
(мм)
S
(см)
21 12.07 В 4 10 км 3/0
[Cs]
+21.7 +16.1 70 +25 +25 комфорт 1011.9 998.4
00 13.07 ЮЗ 1 20 км 3/0
[Cs]
+19.8 +12.8 64 +23 +23 комфорт 1012.4 998.8
03 13.07 ЮВ 4 20 км 1/0
[Ci fib]
+25.0 +12.7 46 +27 +30 жарко 1012.5 999.1 +18.7
06 13.07 ЮВ 6-10
{10}
20 км ясно +31.6 +9.3 25 +31 +36 жарко 1012.2 999.1
09 13.07 ЮВ 6-10
{11}
20 км ясно +32.8 +10.1 25 +32 +38 жарко 1011.5 998.5
12 13.07 В 6
{11}
20 км ясно +32.2 +10.3 26 +32 +34 жарко 1010.9 997.9
15 13.07 В 3 20 км ясно +27.3 +13.5 43 +29 +29 жарко 1011.5 998.2 +33.0
18 13.07 В 5 10 км ясно +21.9 +13.4 58 +25 +25 комфорт 1011.8 998.3
21 13.07 В 6
{10}
10 км ясно +20.0 +11.5 58 +21 +21 комфорт 1011.9 998.3
00 14.07 В 5 20 км ясно +17.3 +12.5 73 +17 +17 1012.0 998.3
03 14.07 ЮВ 4 20 км ясно +23.4 +14.2 56 +27 +31 душно 1011.7 998.2 +16.8
06 14.07 ЮВ 4 20 км ясно +29.9 +11.6 32 +30 +40 жарко 1011.6 998.4
09 14.07 ЮВ 5 20 км ясно +31.8 +10.6 27 +32 +39 жарко 1010.4 997.3
12 14.07 В 5 20 км ясно +32.0 +9.9 26 +32 +35 жарко 1009.7 996.6
15 14.07 В 4 20 км 4/0
[Ci fib]
+26.9 +13.9 45 +29 +29 жарко 1009.4 996.2 +32.3
18 14.07 В 4 10 км 9/0
[Ci]
+22.7 +14.9 61 +26 +26 жарко 1009.4 995.9
21 14.07 В 5 10 км 8/0
[Ci fib]
+20.6 +15.0 70 +23 +23 комфорт 1008.6 995.1
00 15.07 В 5 20 км 9/0
[Ac trans Cc]
+19.2 +14.1 72 +20 +20 1008.0 994.4
03 15.07 ЮВ 5
{10}
20 км 10/0
[Ac As Cs]
+23.8 +12.4 49 +26 +27 жарко 1007.4 994.0 +18.8
06 15.07 В 4 20 км 8/0
[Ac lent Cs]
+28.6 +14.1 41 +31 +36 жарко 1006.2 993.0
09 15.07 ЮВ 8-12
{13}
20 км 8/0
[Cs]
+33.6 +9.9 23 +33 +35 жарко 1004.2 991.3
12 15.07 ЮВ 7-12
{14}
20 км 5/0
[Cc]
+34.0 +9.5 22 +33 +34 жарко 1002.5 989.7
15 15.07 В 7-10
{14}
20 км 6/0
[Ac As Cs]
+30.3 +11.1 31 +31 +31 жарко 1000.5 987.5 +34.3
18 15.07 ЮВ 6-11
{11}
10 км 6/0
[Ac As Cs]
+27.3 +11.5 37 +28 +28 жарко 1000.6 987.5
21 15.07 ЮЗ 2
{11}
10 км 8/0
[Ac As]
+22.4 +12.1 52 +25 +25 комфорт 1001.2 987.9
00 16.07 З 1 20 км 5/0
[As trans Cs]
+17.6 +11.1 66 +19 +19 1002.9 989.3
03 16.07 З 2 20 км 4/0
[Ac cast Cs]
+19.2 +10.8 58 +21 +25 комфорт 1004.1 990.5 +17.6
06 16.07 З 3 20 км 1/1 600 м
[Cb cap]
+22.9 +10.7 46 +25 +35 комфорт 1004.5 991.1
09 16.07 З 4 20 км 1/1 1000 м
[Cu hum]
+26.5 +10.1 36 +27 +36 жарко 1005.6 992.4
12 16.07 З 4-10
{10}
20 км 1/1 1000 м
[Cu hum]
+26.9 +9.3 33 +27 +31 жарко 1006.4 993.2
15 16.07 СЗ 3
{12}
20 км ясно +22.8 +11.4 49 +25 +25 комфорт 1009.0 995.5 +27.5
18 16.07 ЮЗ 1 10 км ясно +16.4 +11.7 74 +17 +17 1010.4 996.7
21 16.07 З 1 10 км ясно +13.9 +11.6 86 +14 +14 1011.8 997.9
00 17.07 СЗ 3 20 км 3/0
[Ci fib]
+14.8 +11.0 78 +14 +14 1012.6 998.7
03 17.07 СЗ 3 20 км 9/0
[Cs]
+19.5 +12.3 63 +21 +25 комфорт 1013.4 999.7 +12.9
06 17.07 СЗ 5 20 км 3/0
[Cs]
+24.8 +9.9 39 +26 +32 жарко 1012.8 999.4
09 17.07 СЗ 4 20 км 4/0
[Ci fib]
+27.4 +8.3 30 +27 +36 жарко 1012.2 998.9
12 17.07 СЗ 3
{10}
20 км 6/0
[Cs]
+28.3 +7.2 26 +28 +32 жарко 1011.7 998.5
15 17.07 СЗ 1 20 км 3/0
[Cs]
+25.6 +8.9 35 +26 +26 жарко 1011.9 998.6 +28.5
18 17.07 штиль 0 10 км 3/0
[Cs]
+15.5 +10.0 70 +15 +15 1013.2 999.3
21 17.07 ЮВ 1 10 км 3/0
[Cs]
+15.9 +11.4 75 +17 +17 1013.1 999.3
00 18.07 В 1 20 км 6/0
[Cc]
+13.4 +9.0 75 +14 +14 1013.2 999.3
03 18.07 штиль 0 20 км 9/0
[Ac As]
+20.4 +13.7 65 +22 +25 комфорт 1013.2 999.6 +12.2
06 18.07 ЮЗ 1 20 км 9/4 600 м
[Cu Sc Ac As]
+26.0 +12.3 43 +28 +32 жарко 1013.1 999.7
09 18.07 СЗ 2 20 км 8/0
[Ac As]
+26.8 +11.5 38 +28 +34 жарко 1012.6 999.3
12 18.07 З 1 20 км 3/0
[Cs]
+29.5 +9.8 29 +29 +36 жарко 1011.3 998.1
15 18.07 СВ 2 20 км 1/0
[Ci fib]
+27.1 +12.6 41 +29 +29 жарко 1010.7 997.4 +29.9
18 18.07 В 3 10 км 8/0
[Ac trans Ci]
+18.5 +11.9 65 +19 +19 1011.2 997.6
21 18.07 В 3 10 км 9/0
[Ac trans Cc]
+18.2 +13.1 72 +19 +19 1011.1 997.4
00 19.07 ЮВ 3 20 км 9/1 1000 м
[Cu med, cong Ac As Ci fib]
+19.3 +11.9 62 +21 +21 комфорт 1010.0 996.4
03 19.07 Ю 1 20 км 9/0
[Ac trans Cc]
+25.1 +12.7 46 +27 +30 жарко 1009.7 996.3 +16.7
06 19.07 З 1 20 км 10/10 600 м
[Sc]
+25.1 +14.4 51 +28 +28 жарко 1010.9 997.6
09 19.07 В 1 20 км 9/9 1000 м
[Sc]
+28.4 +14.5 43 +31 +32 душно 1010.7 997.5
12 19.07 Ю 1 20 км 4/4 1000 м
[Sc]
+32.3 +11.7 28 +32 +37 жарко 1010.2 997.2
15 19.07 ЮВ 2 20 км 4/0
[Ac As]
+28.6 +14.7 43 +31 +31 жарко 1009.8 996.6 +32.5
18 19.07 ЮВ 2 10 км 5/5 600 м
[Sc]
+25.1 +12.9 47 +27 +27 жарко 1010.4 997.0

 

Местоположение метеостанции Звериноголовское (Курганская область, Россия): широта 54.47 долгота 64.87 высота над уровнем моря 117 м.

В архиве по умолчанию представлена погода в Звериноголовском за последнюю неделю. Архивные данные за месяц целиком и за предыдущие месяцы, начиная с января 2011 года, Вы можете получить, выбрав интересующий диапазон дат из раскрывающегося списка и нажав кнопку "Ввод!".


*Определитесь, кто Вы:
робот инопланетянин человек

Внимание! Время в таблицах - всемирное. Для получения местного времени необходимо прибавить поправку, которая равна 5 ч.

Смотрите также архив погоды в соседних городах и на ближайших метеорологических станциях:

Погода в Куртамыше (Курганская область, Россия) (57 км)
Погода в Пресногорьковке (Костанайская область, Казахстан) (59 км)
Погода в Целинном (Курганская область, Россия) (78 км)
Погода в Половинном (Курганская область, Россия) (80 км)
Погода в Кургане (Курганская область, Россия) (114 км)
Погода в Шумихе (Курганская область, Россия) (130 км)
Погода в Тимирязево (Северо-Казахстанская область, Казахстан) (133 км)
Погода в Сарыколе (Костанайская область, Казахстан) (135 км)
Погода в Благовещенке (Северо-Казахстанская область, Казахстан) (136 км)
Погода в Октябрьском (Челябинская область, Россия) (140 км)

Пояснения к столбцам:

Ветер - указаны скорость ветра в м/с - средняя за 10 мин, порывы в срок и между сроками (в фигурных скобках) и направление, откуда дует ветер: С - северный, СВ - северо-восточный, В - восточный, ЮВ - юго-восточный, Ю - южный, ЮЗ - юго-западный, З - западный, СЗ - северо-западный.
Видимость - горизонтальная дальность видимости в метрах или километрах. При видимости от 1 до 10 км при отсутствии осадков обычно наблюдается дымка, при ухудшении видимости до 1 км и менее - туман. В сухую погоду видимость может ухудшаться дымом, пылью или мглою.
Явления - указаны атмосферные явления, наблюдавшиеся в срок или в последний час перед сроком; фигурными скобками обозначены явления, наблюдавшиеся между сроками (за 1-3 часа до срока); квадратными скобками обозначены град или гололедные отложения с указанием их диаметра в мм.
Облачность - указаны через наклонную черту общая и нижняя облачность в баллах и высота нижней границы облаков в метрах; квадратными скобками обозначены формы облаков: Ci - перистые, Cs - перисто-слоистые, Cc - перисто-кучевые, Ac - высококучевые, As - высокослоистые, Sc - слоисто-кучевые, Ns - слоисто-дождевые, Cu - кучевые, Cb - кучево-дождевые. Подробнее классификацию облаков см. в Атласе облаков (PDF).
T - Температура воздуха - температура, измеренная на высоте 2 м над землей.
Td - Температура точки росы - температура, при понижении до которой содержащийся в воздухе водяной пар достигнет насыщения.
f - Относительная влажность воздуха - влажноcть воздуха, измеренная на высоте 2 м над землей.
Te - Эффективная температура - температура, которую ощущает одетый по сезону человек в тени. Характеристика душности погоды. При расчете учитывается влияние влажности воздуха и скорости ветра на теплоощущения человека.
Tes - Эффективная температура на солнце - температура, которую ощущает человек, с поправкой на солнечный нагрев. Характеристика знойности погоды. Зависит от высоты солнца над горизонтом, облачности и скорости ветра. Ночью, в пасмурную погоду, а также при ветре 12 м/с и более поправка равна нулю.
P - Атмосферное давление - приведенное к уровню моря атмосферное давление.
Po - Атмосферное давление - измеренное на уровне метеостанции атмосферное давление.
Tmin - Минимальная температура - минимум температуры воздуха на высоте 2 м над землей.
Tmax - Максимальная температура - максимум температуры воздуха на высоте 2 м над землей.
R - Количество осадков - Количество выпавших осадков за период времени, мм. При наведении курсора мыши на число - период времени, за который выпало указанное количество осадков.
R24 - Количество осадков - Количество выпавших осадков за 24 часа, мм.
S - Снежный покров - Высота снежного покрова, см. При наведении курсора мыши на число - состояние снежного покрова и степень покрытия местности в баллах.